FW5682 Weather Reports


Display with metric or nautical units.
time (UTC)temp
F
wind
direction
speed
MPH
gust
MPH
rain 1hr
in
rain 24hr
in
rain mn
in
humidity
%
barometer
mb
20260503204717 47 0 6.0 13.0 0.00 0.78 0.65 96 1010.6
20260503204217 47 31 8.0 12.0 0.00 0.78 0.65 96 1010.6
20260503203717 47 0 8.0 12.0 0.00 0.78 0.65 96 1010.5
20260503203215 47 61 6.0 14.0 0.00 0.78 0.65 96 1010.4
20260503202715 47 23 9.0 14.0 0.00 0.78 0.65 96 1010.4
20260503202216 47 31 6.0 11.0 0.00 0.78 0.65 96 1010.3
20260503201713 47 31 5.0 12.0 0.00 0.78 0.65 96 1010.3
20260503201213 47 28 7.0 14.0 0.00 0.78 0.65 96 1010.2
20260503200711 47 8 6.0 16.0 0.00 0.78 0.65 96 1010.0
20260503200432 47 0 9.0 16.0 0.00 0.78 0.65 96 1010.0
20260503195713 47 13 9.0 14.0 0.00 0.78 0.65 96 1010.0
20260503195211 47 27 5.0 13.0 0.00 0.78 0.65 96 1010.0
20260503194929 47 18 6.0 14.0 0.00 0.78 0.65 95 1009.8
20260503194211 47 27 8.0 14.0 0.00 0.78 0.65 95 1009.8
20260503193935 47 30 7.0 14.0 0.00 0.78 0.65 96 1009.8
20260503193209 47 32 9.0 13.0 0.00 0.78 0.65 96 1009.7
20260503192706 47 25 7.0 15.0 0.00 0.78 0.65 96 1009.7
20260503192427 48 23 9.0 15.0 0.00 0.78 0.65 96 1009.6
20260503191708 48 13 8.0 13.0 0.00 0.78 0.65 96 1009.6
20260503191205 48 0 7.0 13.0 0.00 0.78 0.65 96 1009.5
20260503190705 48 25 5.0 12.0 0.00 0.78 0.65 96 1009.5
20260503190205 48 31 6.0 13.0 0.00 0.78 0.65 96 1009.4
20260503185702 48 351 8.0 13.0 0.00 0.78 0.65 96 1009.4
20260503185203 48 17 4.0 12.0 0.00 0.78 0.65 96 1009.4
20260503184702 48 6 7.0 14.0 0.00 0.78 0.65 96 1009.3
20260503184203 48 6 6.0 14.0 0.00 0.78 0.65 96 1009.3
20260503183703 48 10 8.0 15.0 0.00 0.78 0.65 96 1009.2
20260503183202 48 0 5.0 15.0 0.00 0.78 0.65 96 1009.1
20260503182703 48 6 6.0 12.0 0.00 0.78 0.65 96 1009.1
20260503182202 48 18 6.0 13.0 0.00 0.78 0.65 96 1009.0
20260503181702 48 51 7.0 13.0 0.00 0.78 0.65 95 1009.0
20260503181203 48 348 8.0 13.0 0.00 0.78 0.65 95 1009.0
20260503180704 48 28 7.0 13.0 0.00 0.78 0.65 96 1008.9
20260503180203 48 10 5.0 12.0 0.00 0.78 0.65 96 1008.9
20260503175700 48 34 7.0 15.0 0.00 0.78 0.65 96 1008.7
20260503175200 48 348 6.0 15.0 0.00 0.78 0.65 96 1008.8
20260503174700 49 13 8.0 13.0 0.00 0.78 0.65 96 1008.6
20260503174153 49 355 6.0 13.0 0.00 0.78 0.65 96 1008.8
20260503173653 49 8 8.0 16.0 0.00 0.78 0.65 96 1008.7
20260503173154 49 23 9.0 16.0 0.00 0.78 0.65 96 1008.7
20260503172650 49 0 7.0 12.0 0.00 0.78 0.65 96 1008.6
20260503172151 49 1 6.0 14.0 0.00 0.78 0.65 95 1008.6
20260503171651 49 0 10.0 14.0 0.00 0.78 0.65 96 1008.6
20260503171151 49 18 7.0 14.0 0.00 0.78 0.65 96 1008.5
20260503170650 49 16 6.0 14.0 0.00 0.78 0.65 95 1008.5
20260503170150 49 21 5.0 14.0 0.00 0.78 0.65 95 1008.5
20260503160146 49 0 7.0 14.0 0.00 0.78 0.65 95 1008.3
20260503150638 50 1 6.0 13.0 0.01 0.78 0.65 96 1008.1
20260503150138 50 27 6.0 13.0 0.01 0.78 0.65 95 1008.1
20260503140131 51 35 6.0 12.0 0.01 0.77 0.64 96 1008.1
20260503131132 50 28 7.0 11.0 0.00 0.76 0.63 96 1007.8
20260503130631 50 42 6.0 10.0 0.01 0.76 0.63 96 1007.8
20260503130132 51 42 6.0 11.0 0.01 0.76 0.63 96 1008.0
20260503120127 50 0 6.0 14.0 0.00 0.76 0.62 96 1007.7
20260503110620 50 18 6.0 12.0 0.01 0.76 0.62 96 1007.6
20260503110345 50 39 7.0 13.0 0.01 0.76 0.62 96 1007.6
20260503100108 50 42 9.0 15.0 0.01 0.75 0.61 96 1007.4
20260503081559 50 58 7.0 14.0 0.05 0.71 0.58 96 1007.4
20260503081101 50 23 6.0 12.0 0.05 0.71 0.57 96 1007.3
20260503080605 50 7 6.0 14.0 0.05 0.71 0.57 96 1007.3
20260503080104 50 69 9.0 14.0 0.05 0.70 0.57 96 1007.3
20260503072559 50 59 8.0 13.0 0.03 0.66 0.54 96 1007.2
20260503072058 50 65 6.0 17.0 0.03 0.66 0.54 96 1007.2
20260503071559 50 354 11.0 17.0 0.03 0.66 0.54 96 1007.2
20260503071058 50 13 7.0 20.0 0.03 0.66 0.53 96 1007.1
20260503070558 50 49 8.0 20.0 0.03 0.66 0.53 96 1007.1
20260503055056 50 13 10.0 16.0 0.04 0.61 0.50 96 1006.7
20260503054812 50 31 9.0 16.0 0.05 0.61 0.50 96 1006.7
20260503054312 50 68 8.0 14.0 0.05 0.61 0.49 95 1006.7
20260503053557 50 30 7.0 15.0 0.06 0.61 0.49 96 1006.7
20260503053315 50 23 7.0 15.0 0.06 0.61 0.49 96 1006.7
20260503052556 50 44 6.0 19.0 0.06 0.61 0.49 96 1006.8
20260503052057 50 0 7.0 19.0 0.07 0.61 0.49 96 1006.6
20260503051555 50 45 6.0 17.0 0.08 0.61 0.48 96 1006.7
20260503051056 50 31 9.0 17.0 0.09 0.61 0.48 96 1006.7
20260503050820 50 34 8.0 14.0 0.09 0.61 0.47 95 1006.6
20260503050324 50 61 8.0 14.0 0.10 0.61 0.47 95 1006.6
20260503045819 50 37 8.0 16.0 0.12 0.50 0.46 95 1006.6
20260503045322 50 61 10.0 16.0 0.12 0.50 0.46 95 1006.6
20260503044555 50 59 8.0 16.0 0.12 0.50 0.45 95 1006.7
20260503044055 50 42 6.0 18.0 0.12 0.50 0.44 95 1006.8
20260503043555 50 37 10.0 18.0 0.12 0.50 0.43 95 1006.9
20260503043055 50 31 8.0 16.0 0.13 0.50 0.43 96 1006.9
20260503042555 50 27 8.0 16.0 0.13 0.50 0.43 95 1006.9
20260503042318 50 37 8.0 16.0 0.14 0.50 0.42 95 1006.9
20260503041555 50 38 9.0 16.0 0.14 0.50 0.40 95 1006.9
20260503041054 50 42 9.0 16.0 0.14 0.50 0.39 95 1006.9
20260503040554 51 25 9.0 13.0 0.14 0.50 0.39 95 1007.0
20260503040054 51 27 5.0 12.0 0.13 0.50 0.36 95 1007.0
20260503035549 51 17 7.0 14.0 0.11 0.37 0.35 95 1007.0
20260503035051 51 30 9.0 14.0 0.11 0.37 0.34 95 1007.1
20260503034550 51 39 7.0 14.0 0.11 0.37 0.33 95 1007.2
20260503034049 51 41 9.0 14.0 0.11 0.37 0.32 95 1007.3
20260503033548 51 37 8.0 13.0 0.13 0.37 0.31 95 1007.3
20260503033047 51 3 8.0 11.0 0.13 0.37 0.31 95 1007.3
20260503032547 51 0 6.0 17.0 0.14 0.37 0.29 95 1007.3
20260503032049 51 34 10.0 17.0 0.15 0.37 0.28 95 1007.2
20260503031807 51 51 8.0 13.0 0.15 0.37 0.26 95 1007.3
20260503031045 51 16 9.0 13.0 0.15 0.37 0.25 95 1007.4
20260503030544 51 41 8.0 15.0 0.15 0.37 0.24 95 1007.6
20260503030042 51 39 7.0 15.0 0.15 0.37 0.24 95 1007.5
20260503025543 51 27 7.0 14.0 0.16 0.22 0.24 95 1007.5
20260503025042 51 8 7.0 11.0 0.16 0.22 0.23 95 1007.7
20260503024543 51 11 8.0 12.0 0.16 0.22 0.22 95 1007.7
20260503024043 51 13 6.0 12.0 0.15 0.22 0.21 95 1007.8
20260503023541 51 1 7.0 12.0 0.13 0.22 0.19 95 1007.8
20260503023038 51 16 6.0 12.0 0.11 0.22 0.17 95 1008.0
20260503022540 51 18 6.0 12.0 0.09 0.22 0.15 95 1008.0
20260503022038 51 35 6.0 11.0 0.06 0.22 0.13 95 1008.0
20260503021537 51 17 4.0 11.0 0.05 0.22 0.11 95 1008.0
20260503021037 51 14 6.0 11.0 0.04 0.22 0.10 95 1008.1
20260503020535 51 17 5.0 9.0 0.04 0.22 0.09 95 1008.2
20260503020035 51 13 6.0 10.0 0.03 0.21 0.08 95 1008.1
20260503015532 51 10 5.0 10.0 0.03 0.19 0.08 95 1008.1
20260503015033 51 16 6.0 9.0 0.02 0.19 0.07 95 1008.2
20260503014800 51 353 3.0 7.0 0.02 0.19 0.06 94 1008.3
20260503014030 51 1 3.0 9.0 0.02 0.19 0.06 94 1008.3
20260503013531 51 1 5.0 9.0 0.02 0.19 0.06 94 1008.1
20260503013031 51 0 4.0 9.0 0.03 0.19 0.06 94 1008.1
20260503012532 51 3 5.0 9.0 0.03 0.19 0.06 94 1008.1
20260503012030 51 0 4.0 7.0 0.03 0.19 0.06 94 1008.1
20260503011531 51 14 3.0 9.0 0.03 0.19 0.06 94 1008.2
20260503011031 51 0 3.0 9.0 0.03 0.19 0.06 94 1008.4
20260503010532 52 0 4.0 9.0 0.02 0.19 0.06 94 1008.4
20260503010039 52 8 5.0 9.0 0.02 0.19 0.06 94 1008.4
20260503005531 52 8 6.0 7.0 0.02 0.16 0.05 94 1008.5
20260503005031 52 14 3.0 9.0 0.02 0.16 0.05 94 1008.6
20260503004531 52 14 4.0 9.0 0.02 0.16 0.05 94 1008.6
20260503004032 52 20 5.0 7.0 0.02 0.16 0.04 94 1008.8
20260503003031 52 0 4.0 7.0 0.02 0.16 0.03 93 1008.8
20260503002532 52 7 4.0 6.0 0.02 0.16 0.03 93 1008.8
20260503002030 52 8 3.0 6.0 0.02 0.16 0.03 93 1008.8
20260503001530 52 17 4.0 6.0 0.02 0.16 0.03 93 1008.8
20260503001031 52 21 4.0 7.0 0.02 0.16 0.03 93 1008.8
20260503000528 52 23 4.0 7.0 0.02 0.16 0.03 93 1008.9
20260503000255 52 96 4.0 6.0 0.02 0.16 0.02 93 1009.0
20260502235528 52 123 3.0 5.0 0.02 0.13 0.02 93 1009.0
20260502235249 52 127 3.0 5.0 0.03 0.13 0.02 93 1009.0
20260502234024 52 127 3.0 5.0 0.05 0.13 0.02 92 1009.2
20260502233524 52 127 3.0 5.0 0.06 0.13 0.02 92 1009.3
20260502233243 52 127 3.0 4.0 0.06 0.13 0.02 92 1009.3
20260502232524 52 127 2.0 4.0 0.08 0.13 0.02 92 1009.3
20260502232023 52 128 2.0 4.0 0.09 0.13 0.02 92 1009.4
20260502231525 53 128 2.0 4.0 0.09 0.13 0.02 92 1009.5
20260502231023 53 128 3.0 4.0 0.08 0.13 0.01 91 1009.5
20260502230744 53 128 2.0 4.0 0.09 0.13 0.01 91 1009.6
20260502230021 53 128 3.0 5.0 0.09 0.05 0.00 91 1009.7
20260502225521 53 128 3.0 5.0 0.09 0.05 0.13 91 1009.7
20260502225021 53 128 2.0 4.0 0.09 0.05 0.13 90 1009.9
20260502224519 53 128 2.0 6.0 0.08 0.05 0.12 90 1009.8
20260502224019 53 128 2.0 12.0 0.07 0.05 0.11 90 1010.0
20260502223741 53 128 4.0 12.0 0.08 0.05 0.10 89 1010.0
20260502223243 53 147 4.0 7.0 0.06 0.05 0.09 89 1010.0
20260502222519 53 7 3.0 7.0 0.06 0.05 0.07 88 1009.9
20260502222016 53 1 3.0 9.0 0.06 0.05 0.06 88 1009.9
20260502221739 53 1 4.0 10.0 0.06 0.05 0.06 88 1009.9
20260502221236 54 0 5.0 10.0 0.06 0.05 0.06 88 1009.9
20260502220512 54 0 4.0 7.0 0.06 0.05 0.06 87 1009.9
20260502220013 54 7 3.0 6.0 0.05 0.00 0.05 87 1010.0
20260502215513 54 18 3.0 6.0 0.05 0.00 0.05 87 1010.1
20260502215012 54 24 3.0 5.0 0.04 0.00 0.04 86 1010.3
20260502214510 55 24 4.0 5.0 0.04 0.00 0.04 85 1010.2
20260502214012 55 30 3.0 6.0 0.04 0.00 0.04 84 1010.3
20260502213510 56 34 4.0 6.0 0.02 0.00 0.02 83 1010.3
20260502213009 56 32 3.0 5.0 0.02 0.00 0.02 82 1010.3
20260502212508 56 30 2.0 4.0 0.02 0.00 0.02 81 1010.3
20260502212010 57 28 3.0 5.0 0.01 0.00 0.01 80 1010.3
20260502211509 57 28 3.0 5.0 0.00 0.00 0.00 79 1010.3
20260502211008 57 24 3.0 5.0 0.00 0.00 0.00 78 1010.3
20260502210507 58 24 4.0 5.0 0.00 0.00 0.00 77 1010.2
20260502210014 58 27 3.0 6.0 0.00 0.00 0.00 76 1010.3
20260502205505 58 25 3.0 6.0 0.00 0.00 0.00 76 1010.3
20260502205004 58 21 2.0 4.0 0.00 0.00 0.00 76 1010.3